Weather History for Ingleside, TX

Change the Weather History Date:

Sunday, November 17, 2013

  Actual Average Record
Temperature  
Mean Temperature 78 °F -  
Max Temperature 84 °F - - ()
Min Temperature 73 °F - - ()
Cooling Degree Days 14    
Growing Degree Days 28 (Base 50)    
Moisture  
Dew Point 73 °F    
Average Humidity 89    
Maximum Humidity 99    
Minimum Humidity 65    
Precipitation  
Precipitation 0.00 in - - ()
Sea Level Pressure  
Sea Level Pressure 29.85 in    
Wind  
Wind Speed 10 mph (South)    
Max Wind Speed 15 mph    
Max Gust Speed 21 mph    
Visibility 8 miles    
Events      
T = Trace of Precipitation, MM = Missing Value Source: NWS Daily Summary

Daily Weather History Graph

Daily Weather History Graph

Search for Another Location

Airport:

Trip Planner

Search our weather history database for the weather conditions in past years. The results will help you decide how hot, cold, wet, or windy it might be!

Date:

Astronomy

Nov. 17, 2013 Rise Set
Actual Time 6:52 AM CST 5:35 PM CST
Civil Twilight 6:27 AM CST 6:00 PM CST
Nautical Twilight 5:58 AM CST 6:28 PM CST
Astronomical Twilight 5:30 AM CST 6:56 PM CST
Moon 5:53 PM CST (11/17) 6:48 AM CST (11/17)
Length of Visible Light 11h 33m
Length of Day
10h 43m
Full, 100% of the Moon is Illuminated
Nov 17
Full
Nov 25
Last Quarter
Dec 2
New
Dec 9
First Quarter
Dec 17
Full

Hourly Weather History & Observations

Time (CST) Temp. Heat Index Dew Point Humidity Pressure Visibility Wind Dir Wind Speed Gust Speed Precip Events Conditions
12:15 AM 75.4 °F - 74.5 °F 97% 29.82 in 7.0 mi SSW 8.1 mph - N/A   Overcast
12:35 AM 75.0 °F - 74.1 °F 97% 29.82 in 7.0 mi SSW 10.4 mph - N/A   Overcast
12:55 AM 74.5 °F - 73.6 °F 97% 29.81 in 7.0 mi South 10.4 mph - N/A   Mostly Cloudy
1:15 AM 74.3 °F - 73.6 °F 98% 29.81 in 7.0 mi South 9.2 mph - N/A   Mostly Cloudy
1:35 AM 74.3 °F - 73.6 °F 98% 29.80 in 10.0 mi South 8.1 mph - N/A   Overcast
1:55 AM 74.3 °F - 73.6 °F 98% 29.80 in 10.0 mi South 13.8 mph - N/A   Mostly Cloudy
2:15 AM 74.3 °F - 73.6 °F 98% 29.80 in 10.0 mi South 12.7 mph 19.6 mph N/A   Scattered Clouds
2:35 AM 74.3 °F - 73.6 °F 98% 29.80 in 10.0 mi South 12.7 mph 18.4 mph N/A   Scattered Clouds
2:55 AM 74.3 °F - 73.6 °F 98% 29.81 in 10.0 mi South 11.5 mph 17.3 mph N/A   Scattered Clouds
3:15 AM 74.3 °F - 73.6 °F 98% 29.80 in 10.0 mi South 10.4 mph - N/A   Scattered Clouds
3:35 AM 74.3 °F - 73.4 °F 97% 29.81 in 10.0 mi North - - N/A   Scattered Clouds
3:55 AM 74.1 °F - 73.4 °F 98% 29.81 in 10.0 mi South 11.5 mph - N/A   Scattered Clouds
4:15 AM 74.3 °F - 73.6 °F 98% 29.81 in 10.0 mi South 12.7 mph 17.3 mph N/A   Clear
4:35 AM 74.3 °F - 73.6 °F 98% 29.81 in 10.0 mi South 10.4 mph 16.1 mph N/A   Clear
4:55 AM 74.3 °F - 73.4 °F 97% 29.80 in 10.0 mi South 10.4 mph - N/A   Clear
5:15 AM 74.1 °F - 73.4 °F 98% 29.80 in 10.0 mi South 13.8 mph 17.3 mph N/A   Clear
5:35 AM 74.3 °F - 73.4 °F 97% 29.80 in 10.0 mi South 11.5 mph - N/A   Clear
5:55 AM 74.3 °F - 73.6 °F 98% 29.80 in 10.0 mi South 12.7 mph 17.3 mph N/A   Clear
6:15 AM 74.3 °F - 73.6 °F 98% 29.81 in 10.0 mi South 10.4 mph - N/A   Clear
6:35 AM 73.9 °F - 73.0 °F 97% 29.82 in 10.0 mi South 8.1 mph - N/A   Clear
6:55 AM 73.8 °F - 73.0 °F 98% 29.82 in 10.0 mi South 10.4 mph - N/A   Clear
7:15 AM 73.8 °F - 73.0 °F 98% 29.84 in 10.0 mi South 6.9 mph - N/A   Clear
7:35 AM 73.8 °F - 73.0 °F 98% 29.84 in 7.0 mi SSE 9.2 mph - N/A   Clear
7:55 AM 74.3 °F - 73.6 °F 98% 29.85 in 10.0 mi South 10.4 mph - N/A   Clear
8:15 AM 76.3 °F - 74.8 °F 95% 29.85 in 10.0 mi South 12.7 mph 17.3 mph N/A   Clear
8:35 AM 77.0 °F - 74.7 °F 92% 29.86 in 10.0 mi South 15.0 mph 20.7 mph N/A   Clear
8:55 AM 77.2 °F - 74.3 °F 91% 29.86 in 10.0 mi South 13.8 mph 19.6 mph N/A   Clear
9:15 AM 77.4 °F - 73.8 °F 89% 29.87 in 10.0 mi South 15.0 mph 20.7 mph N/A   Clear
9:35 AM 77.7 °F - 73.4 °F 86% 29.88 in 10.0 mi South 10.4 mph 16.1 mph N/A   Clear
9:55 AM 78.4 °F - 73.2 °F 84% 29.89 in 10.0 mi SSW 11.5 mph 16.1 mph N/A   Clear
10:15 AM 80.4 °F 84.7 °F 72.5 °F 77% 29.90 in 10.0 mi SSW 15.0 mph 19.6 mph N/A   Scattered Clouds
10:35 AM 79.3 °F - 72.5 °F 79% 29.90 in 10.0 mi South 10.4 mph 17.3 mph N/A   Scattered Clouds
10:55 AM 79.3 °F - 72.5 °F 79% 29.89 in 10.0 mi SSW 9.2 mph 19.6 mph N/A   Clear
11:15 AM 79.9 °F - 72.3 °F 78% 29.89 in 10.0 mi SSW 8.1 mph - N/A   Clear
11:35 AM 82.2 °F 87.3 °F 72.5 °F 72% 29.89 in 10.0 mi SSW 9.2 mph 17.3 mph N/A   Clear
11:55 AM 83.8 °F 89.5 °F 72.3 °F 68% 29.87 in 10.0 mi SSW 11.5 mph - N/A   Clear
12:15 PM 81.7 °F 86.3 °F 72.0 °F 72% 29.87 in 10.0 mi South 9.2 mph - N/A   Clear
12:35 PM 81.5 °F 86.1 °F 72.1 °F 73% 29.86 in 10.0 mi South 9.2 mph - N/A   Clear
12:55 PM 82.4 °F 87.4 °F 72.1 °F 71% 29.85 in 10.0 mi South 8.1 mph - N/A   Clear
1:15 PM 83.5 °F 88.8 °F 71.8 °F 68% 29.84 in 10.0 mi South 10.4 mph - N/A   Clear
1:35 PM 84.2 °F 89.3 °F 71.2 °F 65% 29.84 in 10.0 mi South 11.5 mph 17.3 mph N/A   Clear
1:55 PM 84.2 °F 89.6 °F 71.6 °F 66% 29.83 in 10.0 mi SSE 13.8 mph - N/A   Clear
2:15 PM 83.7 °F 89.2 °F 72.1 °F 68% 29.82 in 10.0 mi SSE 9.2 mph - N/A   Clear
2:35 PM 83.8 °F 89.5 °F 72.3 °F 68% 29.81 in 10.0 mi SSE 12.7 mph - N/A   Scattered Clouds
2:55 PM 83.3 °F 88.7 °F 72.3 °F 69% 29.81 in 10.0 mi SSE 13.8 mph - N/A   Clear
3:15 PM 82.9 °F 88.5 °F 72.5 °F 71% 29.81 in 10.0 mi SSE 10.4 mph - N/A   Clear
3:35 PM 82.8 °F 88.2 °F 72.7 °F 71% 29.81 in 10.0 mi SSE 11.5 mph 16.1 mph N/A   Clear
3:55 PM 81.9 °F 86.8 °F 72.5 °F 73% 29.82 in 10.0 mi SSE 9.2 mph - N/A   Clear
4:15 PM 81.5 °F 86.3 °F 72.5 °F 74% 29.82 in 10.0 mi SSE 10.4 mph - N/A   Clear
4:35 PM 80.6 °F 84.9 °F 72.3 °F 76% 29.83 in 10.0 mi SSE 11.5 mph - N/A   Clear
4:55 PM 79.7 °F - 72.0 °F 77% 29.84 in 10.0 mi South 9.2 mph - N/A   Clear
5:15 PM 78.6 °F - 71.8 °F 79% 29.84 in 7.0 mi SSE 6.9 mph - N/A   Clear
5:35 PM 77.5 °F - 72.5 °F 84% 29.85 in 5.0 mi SSE 10.4 mph - N/A   Clear
5:55 PM 76.6 °F - 73.8 °F 91% 29.85 in 5.0 mi SSE 8.1 mph - N/A   Clear
6:15 PM 76.1 °F - 73.9 °F 93% 29.86 in 5.0 mi SSE 8.1 mph - N/A   Clear
6:35 PM 75.4 °F - 73.9 °F 95% 29.87 in 4.0 mi SSE 6.9 mph - N/A   Clear
6:55 PM 75.2 °F - 73.9 °F 96% 29.88 in 4.0 mi SSE 5.8 mph - N/A   Clear
7:15 PM 75.2 °F - 73.9 °F 96% 29.88 in 3.0 mi SSE 6.9 mph - N/A   Clear
7:35 PM 75.0 °F - 74.1 °F 97% 29.89 in 3.0 mi SSE 9.2 mph - N/A   Clear
7:55 PM 75.0 °F - 74.3 °F 98% 29.89 in 3.0 mi SSE 5.8 mph - N/A   Clear
8:15 PM 75.0 °F - 74.3 °F 98% 29.90 in 2.5 mi SSE 8.1 mph - N/A   Clear
8:35 PM 74.8 °F - 74.3 °F 98% 29.90 in 2.5 mi SSE 5.8 mph - N/A   Clear
8:55 PM 74.7 °F - 73.9 °F 98% 29.91 in 2.0 mi SSE 4.6 mph - N/A   Clear
9:15 PM 74.3 °F - 73.8 °F 98% 29.91 in 2.0 mi SSE 5.8 mph - N/A   Clear
9:35 PM 74.3 °F - 73.8 °F 98% 29.91 in 2.0 mi South 5.8 mph - N/A   Clear
9:55 PM 74.3 °F - 73.8 °F 98% 29.91 in 2.0 mi South 6.9 mph - N/A   Clear
10:15 PM 74.1 °F - 73.6 °F 98% 29.92 in 2.0 mi South 5.8 mph - N/A   Clear
10:35 PM 74.1 °F - 73.6 °F 98% 29.92 in 2.0 mi South 5.8 mph - N/A   Clear
10:55 PM 74.3 °F - 73.6 °F 98% 29.92 in 2.0 mi South 4.6 mph - N/A   Clear
11:15 PM 74.1 °F - 73.6 °F 98% 29.92 in 2.0 mi South 5.8 mph - N/A   Clear
11:35 PM 73.9 °F - 73.4 °F 98% 29.92 in 1.8 mi South 4.6 mph - N/A   Mist
11:55 PM 73.9 °F - 73.6 °F 99% 29.92 in 1.8 mi South 5.8 mph - N/A   Mist